| time (UTC) | temp F | wind direction | speed MPH | gust MPH | rain 1hr in | rain 24hr in | rain mn in | humidity % | barometer mb |
| 20260507215309 | 57 | 239 | 4.0 | 12.0 | 0.00 | 0.00 | 0.00 | 80 | 1013.9 |
| 20260507195809 | 59 | 240 | 2.0 | 7.0 | 0.00 | 0.00 | 0.00 | 76 | 1013.0 |
| 20260507195309 | 59 | 245 | 3.0 | 7.0 | 0.00 | 0.00 | 0.00 | 75 | 1013.0 |
| 20260507185810 | 60 | 247 | 2.0 | 5.0 | 0.00 | 0.00 | 0.00 | 73 | 1012.2 |
| 20260507185308 | 60 | 250 | 1.0 | 7.0 | 0.00 | 0.00 | 0.00 | 73 | 1012.2 |
| 20260507175310 | 62 | 253 | 2.0 | 7.0 | 0.00 | 0.00 | 0.00 | 63 | 1011.9 |
| 20260507165809 | 65 | 246 | 3.0 | 12.0 | 0.00 | 0.00 | 0.00 | 57 | 1011.3 |
| 20260507165310 | 65 | 241 | 5.0 | 12.0 | 0.00 | 0.00 | 0.00 | 56 | 1011.2 |
| 20260507155809 | 68 | 212 | 1.0 | 7.0 | 0.00 | 0.00 | 0.00 | 49 | 1010.6 |
| 20260507155310 | 68 | 207 | 2.0 | 6.0 | 0.00 | 0.00 | 0.00 | 47 | 1010.6 |
| 20260507145310 | 71 | 202 | 2.0 | 8.0 | 0.00 | 0.00 | 0.00 | 42 | 1010.5 |
| 20260507135308 | 70 | 277 | 1.0 | 3.0 | 0.00 | 0.00 | 0.00 | 52 | 1010.8 |
| 20260507125309 | 69 | 218 | 1.0 | 3.0 | 0.00 | 0.00 | 0.00 | 49 | 1011.0 |
| 20260507115808 | 66 | 286 | 1.0 | 5.0 | 0.00 | 0.00 | 0.00 | 55 | 1011.4 |
| 20260507115309 | 66 | 255 | 1.0 | 5.0 | 0.00 | 0.00 | 0.00 | 56 | 1011.3 |
| 20260507095808 | 64 | 262 | 5.0 | 10.0 | 0.00 | 0.00 | 0.00 | 62 | 1011.8 |
| 20260507095308 | 64 | 263 | 3.0 | 10.0 | 0.00 | 0.00 | 0.00 | 64 | 1011.8 |
| 20260507085809 | 62 | 278 | 4.0 | 9.0 | 0.00 | 0.00 | 0.00 | 65 | 1011.4 |
| 20260507085308 | 62 | 272 | 5.0 | 9.0 | 0.00 | 0.00 | 0.00 | 63 | 1011.3 |
| 20260507075308 | 60 | 250 | 6.0 | 12.0 | 0.00 | 0.00 | 0.00 | 69 | 1010.8 |
| 20260507025808 | 57 | 251 | 2.0 | 7.0 | 0.00 | 0.00 | 0.00 | 74 | 1008.2 |
| 20260506235307 | 60 | 249 | 5.0 | 12.0 | 0.00 | 0.00 | 0.00 | 73 | 1006.9 |
| 20260506225807 | 60 | 251 | 2.0 | 6.0 | 0.00 | 0.00 | 0.00 | 73 | 1006.2 |